Miscellaneous Local Product
Issued by NWS North Platte, NE

Home | Current Version | Previous Version | Text Only | Print | Product List | Glossary On
Versions: 1 2 3 4 5 6 7 8 9 10 11 12 13 14 15 16 17 18 19 20 21 22 23 24 25 26 27 28 29 30 31 32 33 34 35 36 37 38 39 40 41 42 43 44 45 46 47 48 49 50
000
AXUS43 KLBF 302310
MISLBF


WESTERN AND NORTH CENTRAL NEBRASKA HOURLY WEATHER ROUNDUP
NATIONAL WEATHER SERVICE NORTH PLATTE NE
600 PM CDT THU JUL 30 2015

***STATIONS NOT REPORTING VARIABLES SUCH AS SKY/WEATHER OR
PRESSURE ARE PROVIDED BY THE NEBRASKA DEPARTMENT OF
ROADS...RAWS...AND APRS NETWORKS...AND ARE NOT UNDER
NATIONAL WEATHER SERVICE QUALITY CONTROL***

...OBSERVATIONS IN AND NEAR THE EASTERN PANHANDLE OF NEBRASKA...

CITY           SKY/WX    TMP DP  RH WIND       PRES   REMARKS
PINE RIDGE     SUNNY     89  43  20 N7        30.21F
CHADRON        SUNNY     89  43  20 CALM      30.20F
ALLIANCE       SUNNY     89  51  27 NE7       30.22F
SIDNEY         PTSUNNY   85  58  39 S18G26    30.24S
$$

...OBSERVATIONS IN NORTH CENTRAL NEBRASKA...

CITY           SKY/WX    TMP DP  RH WIND       PRES   REMARKS
VALENTINE      SUNNY     91  42  18 N12       30.16F
THEDFORD       PTSUNNY   80  60  49 E8        30.19F
AINSWORTH      SUNNY     90  52  27 NE8       30.16S
O`NEILL        PTSUNNY   90  58  34 NE6       30.14S
ORD            SUNNY     89  61  38 SW8       30.13F
BROKEN BOW     SUNNY     87  63  44 W9        30.17F
$$

...OBSERVATIONS IN SOUTHWEST NEBRASKA AND FAR NORTHEAST COLORADO...

CITY           SKY/WX    TMP DP  RH WIND       PRES   REMARKS
WRAY           FAIR      88  50  26 SE15      30.20S
IMPERIAL       MOSUNNY   88  54  31 SE12      30.18F
OGALLALA       SUNNY     85  56  37 SE7       30.17F
NORTH PLATTE   SUNNY     89  59  36 S8        30.16F
MCCOOK         SUNNY     91  58  32 SE7       30.16F HX  90
LEXINGTON      SUNNY     89  60  38 S8        30.17F
$$

...NORTH PLATTE AREA...

CITY           SKY/WX    TMP DP  RH WIND       PRES   REMARKS
AIRPORT        SUNNY     89  59  36 S8        30.16F
$$

...SOME WEATHER OBSERVATIONS FROM AROUND THE REGION...

CITY           SKY/WX    TMP DP  RH WIND       PRES   REMARKS
DENVER         MOSUNNY   89  41  18 VRB7G16   30.27F
LARAMIE        SUNNY     81  24  12 VRB7G16   30.42F
CHEYENNE       SUNNY     82  40  22 NE9       30.35F
SCOTTSBLUFF    SUNNY     90  42  18 E7        30.22F
RAPID CITY     SUNNY     87  45  23 W5        30.22S
PIERRE         SUNNY     91  44  19 VRB5      30.10F
WINNER         FAIR      91  48  22 NW9       30.14F
SIOUX FALLS    MOSUNNY   85  57  38 NW7       30.11F
OMAHA          MOSUNNY   91  58  32 VRB7      30.12F HX  90
GRAND ISLAND   SUNNY     88  63  43 S9        30.16F
KANSAS CITY    PTSUNNY   84  62  47 CALM      30.15F
WICHITA        MOSUNNY   84  69  60 E5        30.14F
HAYS           MOSUNNY   88  64  45 S7        30.15F
LIBERAL        PTSUNNY   81  66  61 S3        30.20S
GOODLAND       SUNNY     88  56  33 S12       30.21F
$$



USA.gov is the U.S. government's official web portal to all federal, state and local government web resources and services.